Location: Invercargill
(46.4000°S, 168.3500°E)
Time: 11:30:31
(UTC+12:00)

SAR-Lupe-4 - Pass Details

Date: 14 May 2021
Orbit: 483 x 483 km, 98.2° (Epoch: 13 April)

Event Time Altitude Azimuth Distance (km) Brightness Sun altitude
Rises 19:17:52 0° 10° (N) 2,551 7.2 -19.3°
Reaches altitude 10° 19:19:55 10° 7° (N) 1,679 6.3 -19.7°
Maximum altitude 19:23:31 69° 283° (WNW) 533 3.8 -20.3°
Drops below altitude 10° 19:27:11 10° 198° (SSW) 1,706 6.5 -20.9°
Sets 19:29:17 0° 195° (SSW) 2,597 7.4 -21.3°
